IRIDIUM 33 DEB, 33881

Orbit data source: Space-Track

IRIDIUM 33 DEB, 33881 is space debris in LEO originally from a launch on Sun, 14 Sep 1997 UTC launched from the Tyuratam Missile And Space Complex (TTMTR). The debris from Iridium 33, an American commercial communications satellite, has been tracked extensively since its accidental collision with the defunct Russian satellite Cosmos 2251 in 2009. This event, occurring at high speed in low Earth orbit (LEO), generated thousands of pieces of space debris, significantly increasing the risk of further collisions. The Iridium 33 debris cloud has impacted space traffic management and orbital debris mitigation strategies, making it a subject of ongoing study in space situational awareness.

Loading next visibility...
Identifier
33881, 1997-051BA
Orbit
LEO
Country
Flag of USUS
Related business
Manufacturer
Unknown
Mission
Spacecraft
Bus & Motor
Unknown
Mass
Unknown
Launch date (UTC)
1997-09-14 (28 years ago)
Launch vehicle
Unknown
Launch site
Tyuratam Missile And Space Complex (TTMTR)
Object type
Payload
Rocket body
Debris
Shape & HBR
Unknown shape, 0.1 m
Radar Cross Section
Small (<0.1 m²)

Expand to show TLE details & history
Last TLE update: 12 hours ago

TLE from 12 hours ago
0 IRIDIUM 33 DEB
1 33881U 97051BA  26037.62193290  .00015726  00000-0  33381-2 0  9996
2 33881  86.3827  82.4242 0056009 350.2841 136.6027 14.58054307883140
Epoch: 2026-02-06T14:55Z
TLE epoch observation values (Epoch: 2026-02-06T14:55:35.002Z)
Latitude
52.62456°
Longitude
-102.95054°
Altitude
737.043 km
Speed
7.476 km/s
True Right ascension
17h 10m 48s
True Declination
52° 27' 29"
Sunlit
Object was in daylight at epoch
Visualization orbit readout
Latitude
Unknown
Longitude
Unknown
Altitude
Unknown
Speed
Unknown
Apparent Right ascension
Unknown
Apparent Declination
Unknown
Sunlit
N/A
Visualization observer readout
Local Sidereal Time
04:57:08
Azimuth
Unknown
Elevation
Unknown
Doppler factor
Unknown
Orbital elements
Apogee altitude
736.018 km
Perigee altitude
656.771 km
Semi-major axis
7,074.531 km
Eccentricity
0.0056
Inclination
86.3827°
RAAN
82.4242°
Arg. of periapsis
350.2841°
True anomaly
137.04143°
Mean anomaly
136.6027°
Eccentric anomaly
136.82229°
Mean motion
3.64751 °/min
Orbital period
98.7 mins
BSTAR
0.0033381
Loading maneuver chart data...
Computing Atmospheric mass density...

Documentation

Showing up to 5 results
|